• In Germany
  • List of Countries
  • For 7 days
  • Water Temperature
  • Satellite Maps
  • Weather Map
  • Weather Widgets
  • user-avatar
    Login

    Hourly Weather Prutz

    Today, 27 March, Monday

    Time Temperature Precipitation Wind Pressure Humidity
    00:00 -1°C° 0 mm 1 mps 634 mmHg 95%
    01:00 -3°C° 0 mm 2 mps 634 mmHg 94%
    02:00 -3°C° 0 mm 2 mps 634 mmHg 94%
    03:00 -3°C° 0 mm 2 mps 634 mmHg 93%
    04:00 -3°C° 0 mm 2 mps 634 mmHg 93%
    05:00 -3°C° 0 mm 2 mps 634 mmHg 93%
    06:00 -2°C° 0 mm 2 mps 634 mmHg 92%
    07:00 -2°C° 0 mm 2 mps 635 mmHg 91%
    08:00 +2°C° 0 mm 1 mps 635 mmHg 88%
    09:00 +5°C° 0 mm 1 mps 636 mmHg 85%
    10:00 +7°C° 0 mm 1 mps 637 mmHg 82%
    11:00 +8°C° 0 mm 1 mps 637 mmHg 80%
    12:00 +9°C° 0 mm 1 mps 637 mmHg 78%
    13:00 +10°C° 0 mm 1 mps 637 mmHg 77%
    14:00 +9°C° 0 mm 0 mps 637 mmHg 78%
    15:00 +8°C° 0 mm 0 mps 636 mmHg 79%
    16:00 +8°C° 0 mm 0 mps 636 mmHg 79%
    17:00 +6°C° 0 mm 0 mps 635 mmHg 85%
    18:00 +3°C° 0 mm 0 mps 635 mmHg 91%
    19:00 0°C° 0 mm 0 mps 634 mmHg 96%
    20:00 0°C° 0 mm 0 mps 634 mmHg 96%
    21:00 +1°C° 0 mm 1 mps 634 mmHg 96%
    22:00 0°C° 0 mm 1 mps 634 mmHg 96%
    23:00 0°C° 0 mm 1 mps 634 mmHg 95%

    Tomorrow, 28 March, Tuesday

    Time Temperature Precipitation Wind Pressure Humidity
    00:00 0°C° 0 mm 1 mps 635 mmHg 95%
    01:00 0°C° 0 mm 1 mps 635 mmHg 94%
    02:00 0°C° 0 mm 1 mps 634 mmHg 94%
    03:00 0°C° 0 mm 1 mps 634 mmHg 93%
    04:00 -1°C° 0 mm 1 mps 634 mmHg 93%
    05:00 0°C° 0 mm 1 mps 634 mmHg 91%
    06:00 0°C° 0 mm 1 mps 635 mmHg 89%
    07:00 +1°C° 0 mm 1 mps 635 mmHg 88%
    08:00 +4°C° 0 mm 1 mps 636 mmHg 83%
    09:00 +6°C° 0 mm 1 mps 637 mmHg 79%
    10:00 +8°C° 0 mm 0 mps 638 mmHg 74%
    11:00 +10°C° 0 mm 1 mps 638 mmHg 73%
    12:00 +10°C° 0 mm 1 mps 639 mmHg 71%
    13:00 +11°C° 0 mm 1 mps 639 mmHg 69%
    14:00 +11°C° 0 mm 1 mps 639 mmHg 71%
    15:00 +10°C° 0 mm 1 mps 638 mmHg 73%
    16:00 +10°C° 0 mm 1 mps 638 mmHg 75%
    17:00 +8°C° 0 mm 1 mps 638 mmHg 82%
    18:00 +6°C° 0 mm 1 mps 637 mmHg 88%
    19:00 +4°C° 0 mm 1 mps 636 mmHg 95%
    20:00 +3°C° 0 mm 1 mps 636 mmHg 95%
    21:00 +3°C° 0 mm 1 mps 637 mmHg 96%
    22:00 +2°C° 0 mm 1 mps 637 mmHg 96%
    23:00 +2°C° 0 mm 1 mps 637 mmHg 96%

    Day after tomorrow, 29 March, Wednesday

    Time Temperature Precipitation Wind Pressure Humidity
    00:00 +3°C° 0 mm 1 mps 637 mmHg 96%
    01:00 +3°C° 0 mm 1 mps 638 mmHg 96%
    02:00 +3°C° 0 mm 1 mps 638 mmHg 96%
    03:00 +3°C° 0 mm 1 mps 638 mmHg 96%
    04:00 +2°C° 0 mm 1 mps 638 mmHg 96%
    05:00 +3°C° 0 mm 1 mps 638 mmHg 95%
    06:00 +3°C° 0 mm 1 mps 638 mmHg 94%
    07:00 +3°C° 0 mm 1 mps 639 mmHg 92%
    08:00 +6°C° 0 mm 1 mps 639 mmHg 85%
    09:00 +8°C° 0 mm 1 mps 640 mmHg 77%
    10:00 +9°C° 0 mm 0 mps 640 mmHg 70%
    11:00 +10°C° 0 mm 1 mps 640 mmHg 67%
    12:00 +11°C° 0 mm 1 mps 640 mmHg 65%
    13:00 +12°C° 0 mm 1 mps 640 mmHg 62%
    14:00 +12°C° 0 mm 1 mps 640 mmHg 64%
    15:00 +11°C° 0 mm 1 mps 640 mmHg 66%
    16:00 +11°C° 0 mm 1 mps 640 mmHg 68%
    17:00 +9°C° 0 mm 1 mps 639 mmHg 77%
    18:00 +6°C° 0 mm 1 mps 638 mmHg 85%
    19:00 +4°C° 0 mm 1 mps 637 mmHg 94%
    20:00 +4°C° 0 mm 1 mps 638 mmHg 94%
    21:00 +4°C° 0 mm 1 mps 638 mmHg 95%
    22:00 +4°C° 0 mm 1 mps 638 mmHg 96%
    23:00 +3°C° 0 mm 1 mps 638 mmHg 96%

    30 March, Thursday

    Time Temperature Precipitation Wind Pressure Humidity
    00:00 +3°C° 0 mm 1 mps 638 mmHg 96%
    01:00 +2°C° 0 mm 1 mps 638 mmHg 96%
    02:00 +2°C° 0 mm 1 mps 638 mmHg 95%
    03:00 +1°C° 0 mm 1 mps 637 mmHg 94%
    04:00 +1°C° 0 mm 1 mps 637 mmHg 93%
    05:00 +2°C° 0 mm 1 mps 637 mmHg 89%
    06:00 +2°C° 0 mm 1 mps 638 mmHg 85%
    07:00 +3°C° 0 mm 1 mps 638 mmHg 81%
    08:00 +6°C° 0 mm 1 mps 639 mmHg 72%
    09:00 +9°C° 0 mm 1 mps 640 mmHg 63%
    10:00 +12°C° 0 mm 1 mps 641 mmHg 54%
    11:00 +13°C° 0 mm 1 mps 641 mmHg 52%
    12:00 +13°C° 0 mm 1 mps 641 mmHg 51%
    13:00 +14°C° 0 mm 1 mps 641 mmHg 49%
    14:00 +14°C° 0 mm 1 mps 641 mmHg 52%
    15:00 +13°C° 0 mm 1 mps 640 mmHg 56%
    16:00 +13°C° 0 mm 1 mps 640 mmHg 59%
    17:00 +10°C° 0 mm 1 mps 639 mmHg 70%
    18:00 +7°C° 0 mm 1 mps 637 mmHg 81%
    19:00 +4°C° 0 mm 1 mps 636 mmHg 91%
    20:00 +4°C° 0 mm 1 mps 637 mmHg 91%
    21:00 +4°C° 0 mm 1 mps 637 mmHg 91%
    22:00 +4°C° 0 mm 1 mps 637 mmHg 91%
    23:00 +3°C° 0 mm 2 mps 637 mmHg 91%

    31 March, Friday

    Time Temperature Precipitation Wind Pressure Humidity
    00:00 +3°C° 0 mm 2 mps 637 mmHg 92%
    01:00 +3°C° 0 mm 2 mps 637 mmHg 92%
    02:00 +3°C° 0 mm 2 mps 636 mmHg 92%
    03:00 +2°C° 0 mm 2 mps 636 mmHg 92%
    04:00 +2°C° 0 mm 2 mps 636 mmHg 92%
    05:00 +2°C° 0 mm 2 mps 636 mmHg 89%
    06:00 +3°C° 0 mm 2 mps 636 mmHg 87%
    07:00 +3°C° 0 mm 2 mps 635 mmHg 84%
    08:00 +5°C° 0 mm 2 mps 636 mmHg 73%
    09:00 +8°C° 0 mm 2 mps 636 mmHg 63%
    10:00 +10°C° 0 mm 2 mps 637 mmHg 52%
    11:00 +12°C° 0 mm 2 mps 637 mmHg 49%
    12:00 +13°C° 0 mm 2 mps 636 mmHg 46%
    13:00 +14°C° 0 mm 2 mps 636 mmHg 44%
    14:00 +14°C° 0 mm 2 mps 636 mmHg 46%
    15:00 +13°C° 0 mm 2 mps 635 mmHg 49%
    16:00 +13°C° 0 mm 2 mps 634 mmHg 51%
    17:00 +9°C° 0 mm 2 mps 633 mmHg 64%
    18:00 +7°C° 0 mm 2 mps 632 mmHg 76%
    19:00 +4°C° 0 mm 2 mps 631 mmHg 89%
    20:00 +4°C° 0 mm 2 mps 632 mmHg 90%
    21:00 +3°C° 0 mm 2 mps 632 mmHg 91%
    22:00 +3°C° 0 mm 2 mps 632 mmHg 91%
    23:00 +3°C° 0 mm 2 mps 632 mmHg 91%

    1 April, Saturday

    Time Temperature Precipitation Wind Pressure Humidity
    00:00 +3°C° 0 mm 2 mps 631 mmHg 90%
    01:00 +3°C° 0 mm 2 mps 631 mmHg 90%
    02:00 +2°C° 0 mm 2 mps 631 mmHg 90%
    03:00 +3°C° 0 mm 1 mps 630 mmHg 90%
    04:00 +3°C° 0 mm 1 mps 630 mmHg 91%
    05:00 +3°C° 0 mm 1 mps 630 mmHg 88%
    06:00 +4°C° 0 mm 1 mps 630 mmHg 86%
    07:00 +4°C° 0 mm 1 mps 630 mmHg 84%
    08:00 +5°C° 0 mm 1 mps 630 mmHg 77%
    09:00 +6°C° 0 mm 2 mps 631 mmHg 70%
    10:00 +7°C° 0 mm 2 mps 631 mmHg 63%
    11:00 +7°C° 0.3 mm 2 mps 631 mmHg 63%
    12:00 +8°C° 0.3 mm 2 mps 630 mmHg 63%
    13:00 +8°C° 0.3 mm 2 mps 630 mmHg 64%
    14:00 +7°C° 0.9 mm 2 mps 630 mmHg 68%
    15:00 +7°C° 0.9 mm 2 mps 629 mmHg 71%
    16:00 +7°C° 0.9 mm 1 mps 629 mmHg 75%
    17:00 +6°C° 1 mm 1 mps 628 mmHg 82%
    18:00 +5°C° 1 mm 1 mps 628 mmHg 88%
    19:00 +3°C° 1 mm 1 mps 628 mmHg 95%
    20:00 +3°C° 0.3 mm 1 mps 628 mmHg 95%
    21:00 +3°C° 0.3 mm 1 mps 628 mmHg 95%
    22:00 +2°C° 0.3 mm 1 mps 628 mmHg 96%
    23:00 +2°C° 0.1 mm 1 mps 628 mmHg 95%
    Show more